[[{"header":{"parameterUnit":"m.s-1","parameterCategory":2,"la1":30.2992,"la2":30.254,"lo1":-89.0895,"lo2":-89.0443,"dy":0.0025,"dx":0.0025,"nx":19,"ny":19,"refTime":"2026-05-17T21:00:00:Z","depth":"0","parameterNumber":2,"parameterNumberName":"U-component_of_CURRENTS"},"data":[0,0,0,-0.336,-0.3362,-0.3433,-0.3433,-0.3428,-0.3427,0,0,0,0,0,0,0,0,0,0,0,-0.3323,-0.3324,-0.336,-0.3362,-0.3433,-0.3433,-0.3428,-0.3427,0,0,0,0,0,0,0,0,0,0,0,-0.3323,-0.3323,-0.3324,-0.3363,-0.3433,-0.3433,-0.3428,-0.3395,0,0,0,0,0,0,0,0,0,0,-0.3336,-0.3307,-0.3323,-0.3324,-0.3363,-0.3433,-0.3433,-0.3394,-0.3397,-0.3372,0,-0.3388,0,-0.3418,-0.3426,-0.3426,0,0,0,-0.3348,-0.3305,-0.3343,-0.3324,-0.3364,-0.3433,-0.3397,-0.3396,-0.3399,-0.3375,-0.3389,-0.339,-0.3418,-0.3426,-0.3426,-0.3432,-0.3432,0,0,-0.3344,-0.3315,-0.3341,-0.3345,-0.3387,-0.3395,-0.34,-0.3399,-0.339,-0.3389,-0.339,-0.3418,-0.3426,-0.3426,-0.3431,-0.3432,0,0,0,-0.3343,-0.3312,-0.3351,-0.3344,-0.3371,-0.3398,-0.3403,-0.339,-0.3409,-0.3391,-0.3418,-0.3426,-0.3426,-0.3431,-0.3432,-0.3473,0,0,0,-0.3339,-0.3313,-0.3349,-0.3329,-0.3372,-0.3392,-0.3393,-0.3408,-0.341,-0.3418,-0.3426,-0.3425,-0.3431,-0.3431,-0.3472,-0.3475,0,0,0,-0.3319,-0.331,-0.3324,-0.3328,-0.337,-0.3393,-0.3411,-0.341,-0.3427,-0.3426,-0.3425,-0.3431,-0.3431,-0.347,-0.3473,-0.3483,0,0,0,-0.3278,-0.328,-0.3323,-0.3338,-0.3369,-0.3419,-0.3412,-0.3429,-0.343,-0.3426,-0.3431,-0.3432,-0.347,-0.3472,-0.3482,-0.3242,-0.3229,0,0,-0.3256,-0.3276,-0.3289,-0.3331,-0.3375,-0.3408,-0.3448,-0.3442,-0.3428,-0.3421,-0.3422,-0.3472,-0.3473,-0.3483,-0.3271,-0.3256,0,0,0,-0.3267,-0.3273,-0.3295,-0.3335,-0.3389,-0.3444,-0.3457,-0.347,-0.3477,-0.3436,-0.347,-0.3469,-0.3474,-0.3327,-0.3316,-0.3216,-0.3434,-0.3434,-0.3434,-0.3157,-0.3225,-0.3251,-0.3337,-0.3384,-0.3459,-0.3493,-0.3511,-0.3496,-0.351,-0.3503,-0.3536,-0.3379,-0.3368,-0.327,-0.351,-0.351,-0.351,-0.351,-0.3117,-0.3127,-0.3234,-0.3285,-0.3378,-0.342,-0.3522,-0.3536,-0.3566,-0.355,-0.3553,-0.3377,-0.3357,-0.3257,-0.3513,-0.3512,-0.3512,-0.3512,-0.3511,-0.3027,-0.3042,-0.3105,-0.3198,-0.3285,-0.3397,-0.3459,-0.354,-0.3578,-0.3595,-0.3414,-0.3409,-0.3319,-0.3593,-0.3593,-0.3593,-0.3593,-0.3593,-0.3593,-0.289,-0.2962,-0.298,-0.311,-0.3151,-0.3259,-0.3418,-0.3449,-0.3444,-0.3423,-0.3421,-0.3292,-0.356,-0.3556,-0.3595,-0.3594,-0.3594,-0.3594,-0.3594,-0.2723,-0.2782,-0.2824,-0.2865,-0.2976,-0.3,-0.3191,-0.319,-0.3261,-0.3195,-0.3076,-0.3325,-0.3282,-0.3287,-0.3274,-0.3238,-0.3239,-0.3238,-0.3238,-0.2573,-0.2624,-0.2674,-0.2716,-0.2769,-0.2868,-0.2761,-0.2788,-0.2816,-0.2769,-0.2881,-0.2796,-0.2814,-0.2743,-0.2761,-0.2737,-0.2567,-0.2566,-0.2566,-0.2419,-0.2512,-0.2505,-0.2625,-0.267,-0.2667,-0.2477,-0.2354,-0.2432,-0.2541,-0.28,-0.2828,-0.2714,-0.2751,-0.2648,-0.268,-0.2646,0,0]},{"header":{"parameterUnit":"m.s-1","parameterCategory":2,"la1":30.2992,"la2":30.254,"lo1":-89.0895,"lo2":-89.0443,"dy":0.0025,"dx":0.0025,"nx":19,"ny":19,"refTime":"2026-05-17T21:00:00:Z","depth":"0","parameterNumber":3,"parameterNumberName":"V-component_of_CURRENTS"},"data":[0,0,0,-0.0399,-0.0397,-0.0252,-0.0251,-0.0034,-0.0033,0,0,0,0,0,0,0,0,0,0,0,-0.0453,-0.0453,-0.0399,-0.0396,-0.0252,-0.0251,-0.0035,-0.0033,0,0,0,0,0,0,0,0,0,0,0,-0.0453,-0.0453,-0.0452,-0.0396,-0.0252,-0.0251,-0.0035,-0.0146,0,0,0,0,0,0,0,0,0,0,-0.0287,-0.0359,-0.0453,-0.0452,-0.0395,-0.0253,-0.0251,-0.0151,-0.0139,-0.0099,0,-0.0097,0,-0.0068,-0.002,-0.0019,0,0,0,-0.037,-0.0369,-0.0327,-0.0452,-0.0395,-0.0253,-0.031,-0.0144,-0.013,-0.0083,-0.0094,-0.0085,-0.0065,-0.0019,-0.0018,0.0097,0.0096,0,0,-0.0378,-0.042,-0.0337,-0.032,-0.0382,-0.0315,-0.0306,-0.0136,-0.0133,-0.0093,-0.008,-0.0061,-0.0017,-0.0016,0.0097,0.0097,0,0,0,-0.0419,-0.0426,-0.0388,-0.0329,-0.031,-0.0311,-0.0301,-0.014,-0.0128,-0.0078,-0.0059,-0.0016,-0.0014,0.0097,0.0097,-0.0025,0,0,0,-0.0422,-0.0451,-0.0393,-0.0415,-0.0314,-0.023,-0.031,-0.0139,-0.0119,-0.006,-0.0016,-0.0012,0.0097,0.0097,-0.0021,-0.0074,0,0,0,-0.0455,-0.0454,-0.0445,-0.0418,-0.0366,-0.0232,-0.0208,-0.0134,-0.0109,-0.0019,-0.0011,0.0097,0.0097,-0.0018,-0.0068,-0.0006,0,0,0,-0.049,-0.0516,-0.0447,-0.0469,-0.0368,-0.0315,-0.0209,-0.015,-0.0086,-0.0015,0.0097,0.0097,-0.0017,-0.0064,-0.0004,0.0112,0.0112,0,0,-0.0548,-0.0524,-0.0537,-0.0473,-0.047,-0.0332,-0.0298,-0.0167,-0.0073,0.0049,0.0052,-0.0022,-0.0067,-0.0005,0.0087,0.0088,0,0,0,-0.0572,-0.0589,-0.0574,-0.0554,-0.048,-0.0404,-0.0269,-0.0191,-0.0079,-0.004,0.0003,-0.002,0.0023,0.0097,0.0098,0.0368,0.0095,0.0095,0.0095,-0.0698,-0.0661,-0.0689,-0.0635,-0.0589,-0.0442,-0.0363,-0.0226,-0.0138,-0.0108,-0.0101,-0.0115,-0.004,-0.0037,0.0237,-0.0078,-0.0079,-0.0079,-0.008,-0.0811,-0.0833,-0.0779,-0.0793,-0.0691,-0.0637,-0.0443,-0.0355,-0.0211,-0.0169,-0.012,-0.0014,-0.0044,0.025,-0.0087,-0.0086,-0.0085,-0.0084,-0.0083,-0.0903,-0.0911,-0.091,-0.0916,-0.0877,-0.0748,-0.0651,-0.0503,-0.0322,-0.029,-0.0103,-0.0099,0.0152,-0.0239,-0.0239,-0.0239,-0.0239,-0.0239,-0.0239,-0.0995,-0.0994,-0.104,-0.1038,-0.1037,-0.0977,-0.0767,-0.0628,-0.0362,-0.0208,-0.0205,0.0193,-0.0161,-0.0163,-0.0239,-0.0239,-0.0239,-0.0239,-0.0239,-0.1096,-0.1089,-0.1154,-0.1175,-0.1173,-0.1068,-0.0926,-0.0553,-0.0374,-0.0203,0.0276,-0.0112,-0.0036,-0.0034,-0.0029,-0.0066,-0.0066,-0.0066,-0.0066,-0.1154,-0.1163,-0.1201,-0.1231,-0.1241,-0.1099,-0.081,-0.046,0.011,0.0427,0.0497,0.057,0.0551,0.0665,0.0652,0.0673,0.0815,0.0817,0.0818,-0.1203,-0.1205,-0.1207,-0.1225,-0.1239,-0.1066,-0.0711,-0.025,0.0542,0.0878,0.0849,0.0812,0.0939,0.0887,0.1081,0.104,0.1079,0,0]}],[{"header":{"parameterUnit":"m.s-1","parameterCategory":2,"la1":30.2992,"la2":30.254,"lo1":-89.0895,"lo2":-89.0443,"dy":0.0025,"dx":0.0025,"nx":19,"ny":19,"refTime":"2026-05-17T21:00:00:Z","depth":"2","parameterNumber":2,"parameterNumberName":"U-component_of_CURRENTS"},"data":[0,0,0,-0.2983,-0.2985,-0.307,-0.3071,-0.308,-0.308,0,0,0,0,0,0,0,0,0,0,0,-0.2944,-0.2945,-0.2983,-0.2985,-0.307,-0.3071,-0.308,-0.308,0,0,0,0,0,0,0,0,0,0,0,-0.2944,-0.2945,-0.2945,-0.2985,-0.307,-0.3071,-0.308,-0.3038,0,0,0,0,0,0,0,0,0,0,-0.2966,-0.2939,-0.2945,-0.2946,-0.2986,-0.307,-0.3071,-0.3037,-0.304,-0.3016,0,-0.3035,0,-0.3064,-0.3079,-0.3079,0,0,0,-0.2975,-0.2936,-0.2973,-0.2946,-0.2987,-0.307,-0.3029,-0.304,-0.3043,-0.302,-0.3035,-0.3037,-0.3064,-0.3079,-0.3079,-0.3092,-0.3092,0,0,-0.297,-0.2944,-0.297,-0.2975,-0.3014,-0.3026,-0.3032,-0.3043,-0.3038,-0.3035,-0.3037,-0.3064,-0.3079,-0.3079,-0.3092,-0.3092,0,0,0,-0.2964,-0.294,-0.2978,-0.2974,-0.3001,-0.3029,-0.3035,-0.3038,-0.3055,-0.3038,-0.3064,-0.3079,-0.3079,-0.3092,-0.3092,-0.3133,0,0,0,-0.296,-0.2938,-0.2976,-0.2959,-0.3002,-0.3033,-0.3029,-0.3054,-0.3057,-0.3064,-0.3079,-0.3079,-0.3091,-0.3092,-0.3131,-0.3132,0,0,0,-0.2939,-0.2935,-0.295,-0.2957,-0.3002,-0.3034,-0.3051,-0.3055,-0.3072,-0.3079,-0.3079,-0.3091,-0.3092,-0.313,-0.3129,-0.3135,0,0,0,-0.2902,-0.291,-0.2949,-0.297,-0.3002,-0.3057,-0.3051,-0.308,-0.3087,-0.3079,-0.3091,-0.3092,-0.3129,-0.3128,-0.3134,-0.2891,-0.2877,0,0,-0.2889,-0.2907,-0.2923,-0.2961,-0.3009,-0.3044,-0.3089,-0.3095,-0.3085,-0.3078,-0.3079,-0.3132,-0.3129,-0.3135,-0.2923,-0.2907,0,0,0,-0.2905,-0.2912,-0.2935,-0.2976,-0.3031,-0.3084,-0.3107,-0.3121,-0.3135,-0.3096,-0.3131,-0.3128,-0.313,-0.2982,-0.297,-0.3095,-0.3094,-0.3094,-0.3094,-0.2815,-0.2876,-0.2905,-0.2983,-0.303,-0.3106,-0.3141,-0.3162,-0.3153,-0.317,-0.3162,-0.3192,-0.3034,-0.3022,-0.3171,-0.3171,-0.3171,-0.3172,-0.3172,-0.2785,-0.2796,-0.2891,-0.2942,-0.3027,-0.3073,-0.3168,-0.3186,-0.3216,-0.3206,-0.3207,-0.3032,-0.3011,-0.3175,-0.3174,-0.3174,-0.3174,-0.3173,-0.3173,-0.2708,-0.2723,-0.278,-0.2866,-0.2948,-0.3053,-0.3106,-0.3188,-0.3228,-0.3245,-0.3062,-0.3057,-0.3204,-0.3244,-0.3244,-0.3244,-0.3244,-0.3244,-0.3244,-0.2589,-0.2654,-0.267,-0.2789,-0.2826,-0.2922,-0.3069,-0.3095,-0.3086,-0.3068,-0.3066,-0.3216,-0.3213,-0.3207,-0.3244,-0.3244,-0.3244,-0.3244,-0.3244,-0.2449,-0.25,-0.2515,-0.2549,-0.2647,-0.2617,-0.2837,-0.2821,-0.2889,-0.2818,-0.2959,-0.2965,-0.2921,-0.2926,-0.2912,-0.2872,-0.2872,-0.2872,-0.2872,-0.232,-0.2364,-0.2344,-0.2355,-0.2394,-0.2459,-0.2322,-0.2359,-0.249,-0.2506,-0.2523,-0.2446,-0.2468,-0.2396,-0.2414,-0.2389,-0.2213,-0.2212,-0.2211,-0.2188,-0.2231,-0.2155,-0.2221,-0.2251,-0.2203,-0.1964,-0.1835,-0.1937,-0.2191,-0.2476,-0.2814,-0.2742,-0.2761,-0.2684,-0.27,-0.2674,0,0]},{"header":{"parameterUnit":"m.s-1","parameterCategory":2,"la1":30.2992,"la2":30.254,"lo1":-89.0895,"lo2":-89.0443,"dy":0.0025,"dx":0.0025,"nx":19,"ny":19,"refTime":"2026-05-17T21:00:00:Z","depth":"2","parameterNumber":3,"parameterNumberName":"V-component_of_CURRENTS"},"data":[0,0,0,-0.0372,-0.037,-0.0237,-0.0236,-0.0029,-0.0028,0,0,0,0,0,0,0,0,0,0,0,-0.0421,-0.0421,-0.0372,-0.037,-0.0237,-0.0236,-0.003,-0.0028,0,0,0,0,0,0,0,0,0,0,0,-0.0421,-0.0421,-0.0421,-0.037,-0.0237,-0.0236,-0.003,-0.0133,0,0,0,0,0,0,0,0,0,0,-0.0264,-0.0331,-0.0421,-0.0421,-0.0369,-0.0238,-0.0236,-0.0138,-0.0127,-0.0087,0,-0.0086,0,-0.0061,-0.0015,-0.0015,0,0,0,-0.0344,-0.0341,-0.0303,-0.0421,-0.0368,-0.0238,-0.029,-0.0132,-0.0119,-0.0072,-0.0083,-0.0075,-0.0057,-0.0014,-0.0013,0.0112,0.0112,0,0,-0.0351,-0.039,-0.0312,-0.0295,-0.0357,-0.0294,-0.0286,-0.0124,-0.0121,-0.0082,-0.007,-0.0054,-0.0013,-0.0012,0.0112,0.0112,0,0,0,-0.039,-0.0396,-0.0361,-0.0304,-0.0288,-0.0291,-0.0281,-0.0128,-0.0117,-0.0068,-0.0052,-0.0012,-0.001,0.0112,0.0112,-0.0012,0,0,0,-0.0393,-0.042,-0.0365,-0.0386,-0.0292,-0.0213,-0.029,-0.0128,-0.0109,-0.0053,-0.0012,-0.0008,0.0112,0.0112,-0.0009,-0.0063,0,0,0,-0.0423,-0.0422,-0.0414,-0.0389,-0.0342,-0.0216,-0.0194,-0.0123,-0.01,-0.0015,-0.0007,0.0112,0.0112,-0.0006,-0.0058,-0.002,0,0,0,-0.0455,-0.0475,-0.0416,-0.0431,-0.0344,-0.0287,-0.0194,-0.0135,-0.0072,-0.0011,0.0112,0.0112,-0.0005,-0.0054,-0.0018,0.0051,0.0046,0,0,-0.0502,-0.0482,-0.049,-0.0434,-0.0424,-0.0302,-0.0265,-0.0146,-0.0054,0.0066,0.0069,-0.001,-0.0057,-0.002,0.005,0.0045,0,0,0,-0.0519,-0.0531,-0.0516,-0.0494,-0.0424,-0.036,-0.0233,-0.0162,-0.0055,-0.002,0.0025,-0.0,0.0027,0.0075,0.0071,0.0111,0.0111,0.0111,0.0111,-0.063,-0.0592,-0.0613,-0.0561,-0.0516,-0.0387,-0.032,-0.0194,-0.0104,-0.0075,-0.0076,-0.01,-0.0052,-0.0053,-0.0044,-0.0045,-0.0045,-0.0046,-0.0046,-0.0725,-0.0745,-0.0693,-0.0701,-0.0616,-0.0565,-0.0395,-0.0317,-0.0189,-0.0136,-0.0103,-0.0028,-0.0065,-0.0055,-0.0053,-0.0052,-0.0051,-0.005,-0.005,-0.0808,-0.0816,-0.0812,-0.0818,-0.0791,-0.0678,-0.0611,-0.0473,-0.0303,-0.028,-0.0138,-0.0135,-0.016,-0.0242,-0.0242,-0.0242,-0.0242,-0.0242,-0.0242,-0.0899,-0.0895,-0.0943,-0.0938,-0.0945,-0.0904,-0.0732,-0.0619,-0.0393,-0.025,-0.0247,-0.0164,-0.0157,-0.0167,-0.0244,-0.0244,-0.0243,-0.0243,-0.0243,-0.0999,-0.0996,-0.1075,-0.1101,-0.1114,-0.109,-0.0918,-0.0623,-0.0464,-0.0324,-0.0189,-0.019,-0.0124,-0.0119,-0.0124,-0.0185,-0.0185,-0.0185,-0.0185,-0.1069,-0.1074,-0.1185,-0.1244,-0.1263,-0.1174,-0.0983,-0.0638,-0.0311,-0.0148,-0.015,-0.012,-0.0122,-0.0054,-0.0049,-0.0052,-0.0095,-0.0095,-0.0095,-0.1133,-0.1161,-0.1255,-0.1309,-0.1329,-0.1247,-0.1032,-0.0588,-0.0157,-0.0095,-0.0175,-0.0171,-0.013,-0.0133,-0.0025,-0.0019,-0.0023,0,0]}],[{"header":{"parameterUnit":"m.s-1","parameterCategory":2,"la1":30.2992,"la2":30.254,"lo1":-89.0895,"lo2":-89.0443,"dy":0.0025,"dx":0.0025,"nx":19,"ny":19,"refTime":"2026-05-17T21:00:00:Z","depth":"4","parameterNumber":2,"parameterNumberName":"U-component_of_CURRENTS"},"data":[0,0,0,-0.2211,-0.2215,-0.2415,-0.2416,-0.2514,-0.2514,0,0,0,0,0,0,0,0,0,0,0,-0.2146,-0.2148,-0.2211,-0.2216,-0.2415,-0.2416,-0.2514,-0.2514,0,0,0,0,0,0,0,0,0,0,0,-0.2146,-0.2147,-0.2149,-0.2216,-0.2415,-0.2416,-0.2514,-0.2402,0,0,0,0,0,0,0,0,0,0,-0.2228,-0.2195,-0.2147,-0.2149,-0.2218,-0.2415,-0.2416,-0.2399,-0.2409,-0.2378,0,-0.2423,0,-0.2466,-0.2517,-0.2518,0,0,0,-0.2216,-0.2187,-0.2236,-0.215,-0.2219,-0.2415,-0.2325,-0.2406,-0.2417,-0.2391,-0.2425,-0.243,-0.2468,-0.2518,-0.2518,-0.2579,-0.2579,0,0,-0.2205,-0.2182,-0.2228,-0.2244,-0.2286,-0.2319,-0.2331,-0.2415,-0.2431,-0.2426,-0.2433,-0.2469,-0.2518,-0.2518,-0.2579,-0.2579,0,0,0,-0.2173,-0.2174,-0.2225,-0.2238,-0.2285,-0.2325,-0.2339,-0.2428,-0.2445,-0.2435,-0.247,-0.2518,-0.2519,-0.2578,-0.2579,-0.2619,0,0,0,-0.2166,-0.2156,-0.222,-0.2208,-0.2285,-0.2382,-0.235,-0.244,-0.2451,-0.247,-0.2518,-0.2519,-0.2578,-0.2579,-0.2617,-0.2612,0,0,0,-0.2134,-0.2152,-0.2179,-0.2206,-0.2292,-0.2382,-0.2405,-0.2444,-0.2471,-0.2518,-0.2519,-0.2578,-0.2579,-0.2615,-0.261,-0.2611,0,0,0,-0.2096,-0.213,-0.2179,-0.2233,-0.229,-0.2391,-0.2406,-0.249,-0.2535,-0.2518,-0.2578,-0.2579,-0.2615,-0.2609,-0.261,-0.2264,0,0,0,-0.2105,-0.213,-0.216,-0.2209,-0.2293,-0.2362,-0.245,-0.2518,-0.253,-0.2538,-0.2542,-0.2617,-0.261,-0.2611,-0.2315,0,0,0,0,-0.214,-0.2163,-0.2198,-0.2269,-0.235,-0.2436,-0.2515,-0.2546,-0.2605,-0.2562,-0.2623,-0.2616,-0.2616,-0.2411,-0.2583,-0.2583,-0.2583,-0.2583,-0.2582,-0.2091,-0.2153,-0.2209,-0.2298,-0.2371,-0.2492,-0.2553,-0.2606,-0.2621,-0.2658,-0.2654,-0.2686,-0.2473,-0.2671,-0.2671,-0.2671,-0.2671,-0.2671,-0.2672,-0.208,-0.2102,-0.2211,-0.229,-0.2396,-0.2483,-0.2594,-0.2636,-0.269,-0.2698,-0.2696,-0.2474,-0.2676,-0.2675,-0.2674,-0.2674,-0.2673,-0.2673,-0.2673,-0.2015,-0.2033,-0.212,-0.2238,-0.2357,-0.2485,-0.2538,-0.2645,-0.2705,-0.2724,-0.2493,-0.27,-0.2689,-0.2731,-0.2731,-0.2732,-0.2732,-0.2732,-0.2732,-0.1896,-0.1982,-0.2035,-0.2184,-0.2248,-0.2358,-0.2519,-0.2532,-0.2629,-0.248,-0.2733,-0.2705,-0.2703,-0.2692,-0.2732,-0.2732,-0.2732,-0.2732,-0.2732,-0.1776,-0.1841,-0.1882,-0.1948,-0.2078,-0.2132,-0.2344,-0.2306,-0.2299,-0.2215,-0.2339,-0.2359,-0.2303,-0.2311,-0.2283,-0.2204,-0.2199,-0.2195,0,-0.1666,-0.1713,-0.1718,-0.1746,-0.1777,-0.196,-0.1871,-0.1939,-0.2016,-0.1952,-0.2295,-0.2438,-0.2449,-0.239,-0.239,-0.2358,0,0,0,-0.1566,-0.1585,-0.1524,-0.1589,-0.1606,-0.1654,-0.1825,-0.1752,-0.2036,-0.1903,-0.2086,-0.2114,-0.2476,-0.2732,-0.2692,-0.269,-0.2669,0,0]},{"header":{"parameterUnit":"m.s-1","parameterCategory":2,"la1":30.2992,"la2":30.254,"lo1":-89.0895,"lo2":-89.0443,"dy":0.0025,"dx":0.0025,"nx":19,"ny":19,"refTime":"2026-05-17T21:00:00:Z","depth":"4","parameterNumber":3,"parameterNumberName":"V-component_of_CURRENTS"},"data":[0,0,0,-0.0263,-0.0262,-0.017,-0.017,0.0002,0.0003,0,0,0,0,0,0,0,0,0,0,0,-0.0296,-0.0296,-0.0263,-0.0262,-0.017,-0.017,0.0002,0.0003,0,0,0,0,0,0,0,0,0,0,0,-0.0296,-0.0296,-0.0296,-0.0262,-0.0171,-0.017,0.0001,-0.0075,0,0,0,0,0,0,0,0,0,0,-0.0169,-0.0222,-0.0296,-0.0296,-0.0261,-0.0171,-0.017,-0.0079,-0.0071,-0.0031,0,-0.0035,0,-0.002,0.0014,0.0015,0,0,0,-0.0238,-0.0229,-0.0203,-0.0296,-0.0261,-0.0171,-0.0205,-0.0075,-0.0065,-0.0019,-0.0033,-0.0026,-0.0018,0.0015,0.0016,0.0136,0.0136,0,0,-0.0243,-0.0273,-0.021,-0.0197,-0.0259,-0.0208,-0.0202,-0.0069,-0.0068,-0.0032,-0.0023,-0.0015,0.0016,0.0017,0.0135,0.0136,0,0,0,-0.0274,-0.0277,-0.0253,-0.0204,-0.0197,-0.0206,-0.0199,-0.0073,-0.0066,-0.0021,-0.0013,0.0017,0.0019,0.0135,0.0135,0.0024,0,0,0,-0.0275,-0.0296,-0.0256,-0.0272,-0.02,-0.0143,-0.0207,-0.0075,-0.006,-0.0014,0.0017,0.002,0.0135,0.0135,0.0027,-0.0031,0,0,0,-0.0296,-0.0298,-0.0294,-0.0274,-0.0245,-0.0146,-0.0129,-0.0071,-0.0056,0.0015,0.0021,0.0135,0.0135,0.0029,-0.0026,-0.0013,0,0,0,-0.0318,-0.0333,-0.0295,-0.0306,-0.0246,-0.02,-0.013,-0.0082,-0.003,0.0018,0.0135,0.0135,0.003,-0.0023,-0.001,-0.0039,0,0,0,-0.0349,-0.0337,-0.0342,-0.0307,-0.0297,-0.0209,-0.018,-0.0086,-0.0007,0.0099,0.0102,0.0026,-0.0026,-0.0012,-0.0018,0,0,0,0,-0.036,-0.037,-0.0358,-0.0345,-0.0292,-0.0253,-0.0151,-0.0095,-0.0007,0.0022,0.0064,0.0036,0.0047,0.004,0.0137,0.0137,0.0137,0.0137,0.0137,-0.0439,-0.0411,-0.0428,-0.0391,-0.0359,-0.0269,-0.0223,-0.0122,-0.0041,-0.0016,-0.0027,-0.0057,-0.0067,0.0013,0.0013,0.0012,0.0012,0.0012,0.0011,-0.0503,-0.0518,-0.0489,-0.0498,-0.0447,-0.0412,-0.0287,-0.0227,-0.0132,-0.0076,-0.0058,-0.0043,0.0001,0.0003,0.0005,0.0006,0.0007,0.0007,0.0008,-0.0559,-0.0566,-0.0574,-0.0594,-0.0592,-0.0516,-0.0486,-0.0379,-0.0239,-0.023,-0.0172,-0.0107,-0.0127,-0.0202,-0.0203,-0.0203,-0.0203,-0.0203,-0.0203,-0.0618,-0.0624,-0.0681,-0.0694,-0.0721,-0.0711,-0.0602,-0.0526,-0.0383,-0.0294,-0.0249,-0.0127,-0.012,-0.0136,-0.0206,-0.0206,-0.0205,-0.0205,-0.0205,-0.0684,-0.0699,-0.0787,-0.0831,-0.0879,-0.0855,-0.0765,-0.0584,-0.0499,-0.0396,-0.0295,-0.029,-0.0241,-0.0231,-0.0249,-0.0356,-0.0356,-0.0357,0,-0.0739,-0.0748,-0.089,-0.0973,-0.1004,-0.0938,-0.0823,-0.0703,-0.0515,-0.0511,-0.05,-0.0396,-0.0387,-0.0341,-0.0332,-0.0359,0,0,0,-0.0795,-0.0835,-0.0952,-0.1032,-0.1062,-0.0897,-0.0789,-0.0719,-0.0549,-0.0457,-0.0373,-0.0369,-0.0329,-0.0216,-0.0127,-0.0119,-0.0138,0,0]}]]